Location: *
(51.4660°N, 0.3360°W)
Time: 15:11:03
(UTC+00:00)

Cosmos 1821 Rocket - Pass Details

Date: 19 September 2019
Orbit: 944 x 1005 km, 82.9° (Epoch: 21 October)

Event Time Altitude Azimuth Distance (km) Brightness Sun altitude
Rises 21:04:52 0° 349° (N) 3,670 7.8 -26.1°
Reaches altitude 10° 21:07:23 10° 349° (NNW) 2,711 7.0 -26.4°
Maximum altitude 21:13:35 83° 263° (W) 968 3.9 -27.1°
Enters shadow 21:14:37 64° 188° (S) 1,053 3.9 -27.3°
